Terug naar catalogus

STARLINK-34617

ActiefCommunicatieVLEO
NORAD 65015·PAYLOAD·🇺🇸 United States

Gelanceerd Jul 30, 2025 vanaf Cape Canaveral Space Force Station

Loading…

Volgende Passages (komende 24 uur)

TLE

VersSource: CelesTrak SupGP

Epoch: Sep 15, 2026, 02:31 UTC

1 65015C 25161A   26258.10534722 -.00061214  00000+0 -39850-3 0  2580
2 65015  53.1569 102.1699 0001014  58.1453  64.5310 15.75270393    10

Volg STARLINK-34617 in realtime met AllMySat

Download on the App Store